World > North America > United States > New York > Aurora

Aurora, NY Hourly Weather Conditions

Feedback E-mail the Weather

Quick WX

Aurora, NY Weather Maps

°F °C°F °C
Aurora Weather Map
UTC Time: 12/4/2022, 14:47
Your Time:

Aurora, NY Regional Weather

Expires:202212041500;;287047
ASUS41 KBGM 041410
RWRBGM

REGIONAL WEATHER ROUNDUP
NATIONAL WEATHER SERVICE BINGHAMTON NY
900 AM EST SUN DEC 04 2022

Note: "fair" indicates few or no clouds below 12,000 feet with no
significant weather and/or obstructions to visibility.

* = Station(s) that does not report precipitation, such as rain, 
snow, etc, also no thunder or fog.


NYZ009-015>018-022>025-036-037-044>046-055>057-062-041500
...Central New York...
  
CITY           SKY/WX    TMP DP  RH WIND       PRES   REMARKS
Binghamton     MOSUNNY   30  19  63 N8        30.15R WCI  22          
Cortland       FAIR      30  21  69 CALM      30.18S                  
Dansville      CLOUDY    34  22  61 NW5       30.20S WCI  30          
Elmira         SUNNY     34  19  54 W5        30.18F WCI  30          
Endicott       SUNNY     32  19  59 CALM      30.19                   
Ithaca         MOSUNNY   31  22  69 NW7       30.18F WCI  24          
Hamilton       SUNNY     32  18  55 W7G17     30.17S WCI  26          
Monticello     MOSUNNY   32  18  56 NW14G20   30.17R WCI  22          
Norwich        SUNNY     32  18  55 NW8       30.21S WCI  25          
Oneonta          N/A     28  16  59 W9        30.13S WCI  20          
Penn Yan       PTSUNNY   31  24  75 CALM      30.19S                  
Rome           CLOUDY    31  24  75 NW8       30.21S WCI  23          
Seneca Falls   MOSUNNY   32  19  59 NW7       30.23S WCI  26          
Sidney         PTSUNNY   32  19  59 NW8       30.19S WCI  25          
Skaneateles    FAIR      30  19  64 W7G14     30.19S WCI  23          
Syracuse       PTSUNNY   35  18  49 W17       30.20S WCI  25          
$$
 

SKY/WX - Weather  TMP - Temperature  DP - Dew Point  RH - Humidity
WIND - Wind Direction/Speed PRES - Barometric Pressure VSB - Visibility
WCI - Wind Chill Index E13G22 Wind - East Wind 13 mph/Gusts of 22 mph

Trending Headlines

Trending Entertainment Headlines

Aurora Radar Loop

Use the map search tool if you want to place a location marker on the radar map...

Aurora Quick Facts

National Two Day Weather Forecast


E-mail the Aurora Weather Forecast

Voice your opinion or tell us about page issues...